Time,TemperatureF,DewpointF,PressureIn,WindDirection,WindDirectionDegrees,WindSpeedMPH,WindSpeedGustMPH,Humidity,HourlyPrecipIn,Conditions,Clouds,dailyrainin,SolarRadiationWatts/m^2,SoftwareType,DateUTC
2013-04-28 00:00:00,73.5,65.8,30.10,SE,133,7.0,7.0,77,0.00,CLR,,0.00,0.0,WeatherDisplay:10.37,2013-04-28 04:00:00,
2013-04-28 00:01:00,73.7,65.7,30.11,ESE,115,9.2,9.2,76,0.00,CLR,,0.00,0.0,WeatherDisplay:10.37,2013-04-28 04:01:00,
2013-04-28 00:06:00,73.5,65.5,30.10,ESE,106,9.2,9.2,76,0.00,CLR,,0.00,0.0,WeatherDisplay:10.37,2013-04-28 04:06:00,
2013-04-28 00:23:00,73.3,65.7,30.10,ESE,104,9.2,9.2,77,0.00,CLR,,0.00,0.0,WeatherDisplay:10.37,2013-04-28 04:23:00,
2013-04-28 00:57:00,72.6,65.7,30.10,SE,127,5.0,5.0,79,0.00,CLR,,0.00,0.0,WeatherDisplay:10.37,2013-04-28 04:57:00,
2013-04-28 01:00:00,72.3,65.8,30.10,ESE,122,6.9,6.9,80,0.00,CLR,,0.00,0.0,WeatherDisplay:10.37,2013-04-28 05:00:00,
2013-04-28 01:02:00,72.5,65.6,30.10,ESE,104,8.1,8.1,79,0.00,CLR,,0.00,0.0,WeatherDisplay:10.37,2013-04-28 05:02:00,
2013-04-28 01:07:00,72.4,65.5,30.10,ESE,117,8.1,8.1,79,0.00,CLR,,0.00,0.0,WeatherDisplay:10.37,2013-04-28 05:07:00,
2013-04-28 01:57:00,71.3,65.5,30.08,ESE,121,6.9,6.9,82,0.00,CLR,,0.00,0.0,WeatherDisplay:10.37,2013-04-28 05:57:00,
2013-04-28 02:00:00,71.1,65.3,30.08,ESE,118,5.0,5.0,82,0.00,CLR,,0.00,0.0,WeatherDisplay:10.37,2013-04-28 06:00:00,
2013-04-28 02:02:00,71.2,65.4,30.08,ESE,116,4.6,4.6,82,0.00,CLR,,0.00,0.0,WeatherDisplay:10.37,2013-04-28 06:02:00,
2013-04-28 02:07:00,71.2,65.4,30.08,SSE,157,3.4,3.7,82,0.00,CLR,,0.00,0.0,WeatherDisplay:10.37,2013-04-28 06:07:00,
2013-04-28 02:56:00,70.4,65.0,30.07,ESE,117,6.9,6.9,83,0.03,CLR,,0.03,0.0,WeatherDisplay:10.37,2013-04-28 06:56:00,
2013-04-28 03:00:00,70.2,65.1,30.07,ESE,121,6.9,6.9,84,0.03,CLR,,0.03,0.0,WeatherDisplay:10.37,2013-04-28 07:00:00,
2013-04-28 03:02:00,70.3,65.2,30.07,ESE,110,7.0,7.0,84,0.03,CLR,,0.03,0.0,WeatherDisplay:10.37,2013-04-28 07:02:00,
2013-04-28 03:07:00,70.2,65.1,30.07,ESE,117,6.9,6.9,84,0.03,CLR,,0.03,0.0,WeatherDisplay:10.37,2013-04-28 07:07:00,
2013-04-28 03:56:00,69.5,64.8,30.05,East,98,4.6,4.6,85,0.00,CLR,,0.03,0.0,WeatherDisplay:10.37,2013-04-28 07:56:00,
2013-04-28 04:00:00,69.1,64.7,30.05,ESE,117,3.4,3.4,86,0.00,CLR,,0.03,0.0,WeatherDisplay:10.37,2013-04-28 08:00:00,
2013-04-28 04:01:00,69.4,64.7,30.05,ESE,117,4.6,4.6,85,0.00,CLR,,0.03,0.0,WeatherDisplay:10.37,2013-04-28 08:01:00,
2013-04-28 04:06:00,69.2,64.8,30.05,ESE,117,2.3,2.3,86,0.00,CLR,,0.03,0.0,WeatherDisplay:10.37,2013-04-28 08:06:00,
2013-04-28 04:57:00,68.3,64.3,30.05,ESE,118,3.4,3.4,87,0.00,CLR,,0.03,0.0,WeatherDisplay:10.37,2013-04-28 08:57:00,
2013-04-28 05:00:00,68.3,64.6,30.05,ESE,107,4.6,4.6,88,0.00,CLR,,0.03,0.0,WeatherDisplay:10.37,2013-04-28 09:00:00,
2013-04-28 05:02:00,68.3,64.6,30.05,ESE,109,4.6,4.6,88,0.00,CLR,,0.03,0.0,WeatherDisplay:10.37,2013-04-28 09:02:00,
2013-04-28 05:07:00,68.3,64.6,30.04,ESE,107,4.6,4.6,88,0.00,CLR,,0.03,0.0,WeatherDisplay:10.37,2013-04-28 09:07:00,
2013-04-28 05:57:00,67.3,64.3,30.04,ESE,107,1.1,1.1,90,0.00,CLR,,0.03,0.0,WeatherDisplay:10.37,2013-04-28 09:57:00,
2013-04-28 06:00:00,67.1,64.1,30.04,ESE,107,1.1,1.4,90,0.00,CLR,,0.03,0.0,WeatherDisplay:10.37,2013-04-28 10:00:00,
2013-04-28 06:02:00,67.0,64.0,30.04,ESE,107,2.3,0.0,90,0.00,CLR,,0.03,0.0,WeatherDisplay:10.37,2013-04-28 10:02:00,
2013-04-28 06:07:00,67.0,64.0,30.04,ESE,107,1.1,0.0,90,0.00,CLR,,0.03,0.0,WeatherDisplay:10.37,2013-04-28 10:07:00,
2013-04-28 06:56:00,66.4,63.7,30.06,ESE,107,1.1,1.1,91,0.00,OVC,,0.03,5.0,WeatherDisplay:10.37,2013-04-28 10:56:00,
2013-04-28 07:00:00,66.2,63.8,30.06,ESE,107,3.4,3.4,92,0.00,OVC,,0.03,14.0,WeatherDisplay:10.37,2013-04-28 11:00:00,
2013-04-28 07:01:00,66.3,63.9,30.06,ESE,107,1.0,1.0,92,0.00,OVC,,0.03,9.0,WeatherDisplay:10.37,2013-04-28 11:01:00,
2013-04-28 07:06:00,66.3,63.9,30.06,ESE,107,3.4,3.4,92,0.00,OVC,,0.03,12.0,WeatherDisplay:10.37,2013-04-28 11:06:00,
2013-04-28 07:57:00,67.5,64.8,30.08,ESE,107,1.1,1.1,91,0.00,OVC,,0.03,111.0,WeatherDisplay:10.37,2013-04-28 11:57:00,
2013-04-28 08:00:00,68.4,65.0,30.08,ESE,107,4.6,4.6,89,0.00,OVC,,0.03,153.0,WeatherDisplay:10.37,2013-04-28 12:00:00,
2013-04-28 08:02:00,67.9,65.2,30.08,ESE,107,4.6,4.6,91,0.00,OVC,,0.03,132.0,WeatherDisplay:10.37,2013-04-28 12:02:00,
2013-04-28 08:07:00,68.3,65.3,30.08,ESE,107,1.1,1.2,90,0.00,OVC,,0.03,121.0,WeatherDisplay:10.37,2013-04-28 12:07:00,
2013-04-28 08:57:00,72.3,65.8,30.08,ESE,122,8.1,8.1,80,0.00,BKN,,0.03,323.0,WeatherDisplay:10.37,2013-04-28 12:57:00,
2013-04-28 09:00:00,73.3,65.7,30.08,SE,129,8.1,8.1,77,0.00,BKN,,0.03,367.0,WeatherDisplay:10.37,2013-04-28 13:00:00,
2013-04-28 09:02:00,72.9,66.0,30.08,SE,125,6.9,6.9,79,0.00,BKN,,0.03,341.0,WeatherDisplay:10.37,2013-04-28 13:02:00,
2013-04-28 09:07:00,73.3,65.7,30.08,East,84,11.5,11.5,77,0.00,BKN,,0.03,360.0,WeatherDisplay:10.37,2013-04-28 13:07:00,
2013-04-28 09:57:00,75.7,64.8,30.09,SE,138,11.5,11.5,69,0.00,BKN,,0.03,452.0,WeatherDisplay:10.37,2013-04-28 13:57:00,
2013-04-28 10:00:00,76.1,64.8,30.09,SE,134,11.5,11.5,68,0.00,SCT,,0.03,571.0,WeatherDisplay:10.37,2013-04-28 14:00:00,
2013-04-28 10:02:00,75.7,65.2,30.09,SE,140,11.5,11.5,70,0.00,SCT,,0.03,547.0,WeatherDisplay:10.37,2013-04-28 14:02:00,
2013-04-28 10:07:00,76.3,65.0,30.09,SE,126,11.5,11.5,68,0.00,SCT,,0.03,564.0,WeatherDisplay:10.37,2013-04-28 14:07:00,
2013-04-28 10:57:00,78.0,64.4,30.09,South,179,14.9,14.9,63,0.00,BKN,,0.03,557.0,WeatherDisplay:10.37,2013-04-28 14:57:00,
2013-04-28 11:00:00,78.5,65.3,30.09,SSE,151,11.5,11.5,64,0.00,SCT,,0.03,751.0,WeatherDisplay:10.37,2013-04-28 15:00:00,
2013-04-28 11:02:00,77.7,65.0,30.09,SE,139,17.3,17.3,65,0.00,SCT,,0.03,724.0,WeatherDisplay:10.37,2013-04-28 15:02:00,
2013-04-28 11:07:00,78.2,65.5,30.09,SSE,155,9.2,9.2,65,0.00,SCT,,0.03,742.0,WeatherDisplay:10.37,2013-04-28 15:07:00,
2013-04-28 11:57:00,80.3,65.1,30.07,SE,131,14.9,14.9,60,0.00,SCT,,0.03,849.0,WeatherDisplay:10.37,2013-04-28 15:57:00,
2013-04-28 12:00:00,80.2,64.6,30.06,SE,130,11.5,11.5,59,0.00,SCT,,0.03,881.0,WeatherDisplay:10.37,2013-04-28 16:00:00,
2013-04-28 12:02:00,80.4,65.2,30.06,SSE,161,11.5,11.5,60,0.00,SCT,,0.03,861.0,WeatherDisplay:10.37,2013-04-28 16:02:00,
2013-04-28 12:07:00,80.3,65.1,30.06,ESE,113,9.2,9.2,60,0.00,SCT,,0.03,877.0,WeatherDisplay:10.37,2013-04-28 16:07:00,
2013-04-28 12:52:00,82.2,64.9,30.04,SE,144,10.3,10.3,56,0.00,FEW,,0.03,940.0,WeatherDisplay:10.37,2013-04-28 16:52:00,
2013-04-28 12:57:00,82.3,64.5,30.04,ESE,113,8.1,8.1,55,0.00,FEW,,0.03,946.0,WeatherDisplay:10.37,2013-04-28 16:57:00,
2013-04-28 13:00:00,82.3,64.0,30.03,SE,142,11.5,11.5,54,0.00,FEW,,0.03,947.0,WeatherDisplay:10.37,2013-04-28 17:00:00,
2013-04-28 13:02:00,82.5,64.7,30.04,SE,137,10.3,10.3,55,0.00,FEW,,0.03,953.0,WeatherDisplay:10.37,2013-04-28 17:02:00,
2013-04-28 13:07:00,82.9,64.0,30.03,SSE,147,11.5,11.5,53,0.00,FEW,,0.03,947.0,WeatherDisplay:10.37,2013-04-28 17:07:00,
2013-04-28 13:17:00,82.5,63.6,30.03,SE,142,13.8,13.8,53,0.00,FEW,,0.03,962.0,WeatherDisplay:10.37,2013-04-28 17:17:00,
2013-04-28 13:24:00,83.7,63.7,30.03,SSE,155,11.5,11.5,51,0.00,FEW,,0.03,965.0,WeatherDisplay:10.37,2013-04-28 17:24:00,
2013-04-28 13:57:00,84.7,64.0,30.03,SSE,159,13.8,13.8,50,0.00,CLR,,0.03,981.0,WeatherDisplay:10.37,2013-04-28 17:57:00,
2013-04-28 14:00:00,83.5,62.9,30.02,SE,146,11.5,11.5,50,0.00,CLR,,0.03,970.0,WeatherDisplay:10.37,2013-04-28 18:00:00,
2013-04-28 14:02:00,83.8,62.6,30.02,SSE,153,14.9,14.9,49,0.00,CLR,,0.03,979.0,WeatherDisplay:10.37,2013-04-28 18:02:00,
2013-04-28 14:07:00,83.6,63.0,30.02,ESE,119,13.8,13.8,50,0.00,CLR,,0.03,974.0,WeatherDisplay:10.37,2013-04-28 18:07:00,
2013-04-28 14:56:00,84.7,62.2,30.00,SE,146,11.5,11.5,47,0.00,CLR,,0.03,919.0,WeatherDisplay:10.37,2013-04-28 18:56:00,
2013-04-28 15:00:00,84.7,62.2,29.99,SSE,148,9.2,9.2,47,0.00,CLR,,0.03,909.0,WeatherDisplay:10.37,2013-04-28 19:00:00,
2013-04-28 15:01:00,84.5,61.4,29.99,SSE,155,11.5,11.5,46,0.00,CLR,,0.03,919.0,WeatherDisplay:10.37,2013-04-28 19:01:00,
2013-04-28 15:06:00,84.7,61.6,29.99,SSW,209,11.5,11.5,46,0.00,CLR,,0.03,918.0,WeatherDisplay:10.37,2013-04-28 19:06:00,
2013-04-28 15:45:00,85.3,60.9,29.98,SE,138,3.4,3.4,44,0.00,CLR,,0.03,844.0,WeatherDisplay:10.37,2013-04-28 19:45:00,
2013-04-28 15:56:00,84.8,59.8,29.98,SSE,150,11.5,11.5,43,0.00,CLR,,0.03,819.0,WeatherDisplay:10.37,2013-04-28 19:56:00,
2013-04-28 16:00:00,86.0,60.9,29.98,SE,145,8.1,8.1,43,0.00,CLR,,0.03,796.0,WeatherDisplay:10.37,2013-04-28 20:00:00,
2013-04-28 16:01:00,85.5,61.1,29.98,SE,136,9.2,9.2,44,0.00,CLR,,0.03,803.0,WeatherDisplay:10.37,2013-04-28 20:01:00,
2013-04-28 16:06:00,85.7,61.3,29.98,SE,146,8.1,8.1,44,0.00,CLR,,0.03,809.0,WeatherDisplay:10.37,2013-04-28 20:06:00,
2013-04-28 16:56:00,79.3,69.1,29.97,NW,309,10.3,10.3,71,0.00,CLR,,0.03,654.0,WeatherDisplay:10.37,2013-04-28 20:56:00,
2013-04-28 17:00:00,79.0,68.8,29.97,WSW,250,9.2,9.2,71,0.00,CLR,,0.03,527.0,WeatherDisplay:10.37,2013-04-28 21:00:00,
2013-04-28 17:01:00,79.1,69.7,29.97,WNW,285,8.0,8.0,73,0.00,CLR,,0.03,663.0,WeatherDisplay:10.37,2013-04-28 21:01:00,
2013-04-28 17:07:00,78.7,68.9,29.97,WNW,300,11.5,11.5,72,0.00,CLR,,0.03,635.0,WeatherDisplay:10.37,2013-04-28 21:07:00,
2013-04-28 17:27:00,78.5,69.1,29.97,WNW,299,9.2,9.2,73,0.00,CLR,,0.03,765.0,WeatherDisplay:10.37,2013-04-28 21:27:00,
2013-04-28 17:57:00,79.2,69.8,29.96,WSW,242,6.9,6.9,73,0.00,CLR,,0.03,612.0,WeatherDisplay:10.37,2013-04-28 21:57:00,
2013-04-28 18:00:00,78.6,68.8,29.96,SW,234,2.3,2.7,72,0.00,OVC,,0.03,450.0,WeatherDisplay:10.37,2013-04-28 22:00:00,
2013-04-28 18:02:00,79.1,68.9,29.96,WNW,285,6.0,6.0,71,0.00,OVC,,0.03,533.0,WeatherDisplay:10.37,2013-04-28 22:02:00,
2013-04-28 18:07:00,78.4,68.6,29.96,WSW,244,4.6,4.6,72,0.00,OVC,,0.03,485.0,WeatherDisplay:10.37,2013-04-28 22:07:00,
2013-04-28 18:57:00,76.4,69.0,29.95,West,273,3.4,3.4,78,0.00,OVC,,0.03,77.0,WeatherDisplay:10.37,2013-04-28 22:57:00,
2013-04-28 19:00:00,76.1,69.1,29.95,NW,310,6.9,6.9,79,0.00,OVC,,0.03,84.0,WeatherDisplay:10.37,2013-04-28 23:00:00,
2013-04-28 19:02:00,76.4,69.4,29.96,WNW,283,5.8,5.8,79,0.00,OVC,,0.03,93.0,WeatherDisplay:10.37,2013-04-28 23:02:00,
2013-04-28 19:07:00,76.2,69.2,29.96,WNW,301,8.1,8.1,79,0.00,OVC,,0.03,97.0,WeatherDisplay:10.37,2013-04-28 23:07:00,
2013-04-28 19:57:00,75.3,69.1,29.96,WSW,257,3.4,3.4,81,0.00,OVC,,0.03,0.0,WeatherDisplay:10.37,2013-04-28 23:57:00,
2013-04-28 20:00:00,75.3,68.7,29.96,WNW,294,4.6,4.6,80,0.00,OVC,,0.03,0.0,WeatherDisplay:10.37,2013-04-29 00:00:00,
2013-04-28 20:02:00,75.2,69.0,29.96,WNW,285,3.4,3.4,81,0.00,OVC,,0.03,0.0,WeatherDisplay:10.37,2013-04-29 00:02:00,
2013-04-28 20:07:00,75.2,68.6,29.96,NW,314,4.6,4.6,80,0.00,OVC,,0.03,0.0,WeatherDisplay:10.37,2013-04-29 00:07:00,
2013-04-28 20:43:00,75.5,67.8,29.96,WNW,302,3.4,3.4,77,0.00,CLR,,0.03,0.0,WeatherDisplay:10.37,2013-04-29 00:43:00,
2013-04-28 20:57:00,75.6,67.9,29.96,WNW,302,3.4,3.4,77,0.00,CLR,,0.03,0.0,WeatherDisplay:10.37,2013-04-29 00:57:00,
2013-04-28 21:00:00,75.5,67.8,29.96,WNW,302,3.4,3.4,77,0.00,CLR,,0.03,0.0,WeatherDisplay:10.37,2013-04-29 01:00:00,
2013-04-28 21:02:00,75.6,67.9,29.96,WNW,302,1.1,1.1,77,0.00,CLR,,0.03,0.0,WeatherDisplay:10.37,2013-04-29 01:02:00,
2013-04-28 21:07:00,75.5,67.4,29.96,WNW,302,4.6,4.6,76,0.00,CLR,,0.03,0.0,WeatherDisplay:10.37,2013-04-29 01:07:00,
2013-04-28 21:48:00,74.9,68.3,29.97,North,355,3.4,3.4,80,0.00,CLR,,0.03,0.0,WeatherDisplay:10.37,2013-04-29 01:48:00,
2013-04-28 21:56:00,74.9,68.7,29.98,NW,320,4.0,4.0,81,0.00,CLR,,0.03,0.0,WeatherDisplay:10.37,2013-04-29 01:56:00,
2013-04-28 22:00:00,74.9,68.7,29.98,NNW,328,1.1,1.8,81,0.00,CLR,,0.03,0.0,WeatherDisplay:10.37,2013-04-29 02:00:00,
2013-04-28 22:01:00,74.9,68.3,29.98,NNW,328,4.6,4.6,80,0.00,CLR,,0.03,0.0,WeatherDisplay:10.37,2013-04-29 02:01:00,
2013-04-28 22:06:00,74.9,68.7,29.98,NNW,328,4.6,4.6,81,0.00,CLR,,0.03,0.0,WeatherDisplay:10.37,2013-04-29 02:06:00,
2013-04-28 22:56:00,74.6,68.7,29.99,North,350,1.1,0.0,82,0.00,CLR,,0.03,0.0,WeatherDisplay:10.37,2013-04-29 02:56:00,
2013-04-28 23:00:00,73.2,69.1,29.99,NE,40,5.8,5.8,87,0.00,CLR,,0.03,0.0,WeatherDisplay:10.37,2013-04-29 03:00:00,
2013-04-28 23:01:00,74.4,68.9,29.99,North,350,1.1,1.1,83,0.00,CLR,,0.03,0.0,WeatherDisplay:10.37,2013-04-29 03:01:00,
2013-04-28 23:06:00,73.7,69.2,29.99,North,350,1.1,1.1,86,0.00,CLR,,0.03,0.0,WeatherDisplay:10.37,2013-04-29 03:06:00,
2013-04-28 23:56:00,72.2,69.4,30.00,NE,38,0.0,0.0,91,0.00,CLR,,0.03,0.0,WeatherDisplay:10.37,2013-04-29 03:56:00,